Weather History for FBSK - April, 2013

Change the Weather History Date:

Tuesday, April 23, 2013

  Actual Average Record
Temperature  
Mean Temperature 63 °F -  
Max Temperature 78 °F 75 °F 87 °F (1998)
Min Temperature 48 °F 47 °F 41 °F (2008)
Degree Days  
Heating Degree Days 2    
Growing Degree Days 13 (Base 50)    
Moisture  
Dew Point 44 °F    
Average Humidity 55    
Maximum Humidity 93    
Minimum Humidity 21    
Precipitation  
Precipitation 0.00 in - - ()
Sea Level Pressure  
Sea Level Pressure 30.13 in    
Wind  
Wind Speed 4 mph ()    
Max Wind Speed 7 mph    
Max Gust Speed -    
Averages and records for this station are not official NWS values.
T = Trace of Precipitation, MM = Missing Value Source: Averaged Metar Reports

Daily Weather History Graph

Daily Weather History Graph

Search for Another Location

Airport or City:

Trip Planner

Search our weather history database for the weather conditions in past years. The results will help you decide how hot, cold, wet, or windy it might be!

Date:

Astronomy

Apr. 23, 2013 Rise Set
Actual Time 6:34 AM CAT 5:54 PM CAT
Civil Twilight 6:11 AM CAT 6:17 PM CAT
Nautical Twilight 5:44 AM CAT 6:44 PM CAT
Astronomical Twilight 5:17 AM CAT 7:11 PM CAT
Moon 4:09 PM CAT (4/23) 3:57 AM CAT (4/23)
Length of Visible Light 12h 06m
Length of Day
11h 20m
Waxing Gibbous, 92% of the Moon is Illuminated
Apr 23
Waxing Gibbous
Apr 25
Full
May 2
Last Quarter
May 10
New
May 18
First Quarter

Hourly Weather History & Observations

Time (CAT) Temp. Dew Point Humidity Pressure Visibility Wind Dir Wind Speed Gust Speed Precip Events Conditions
12:00 AM 59.0 °F 46.4 °F 63% 30.09 in - South 5.8 mph - N/A   Clear
1:00 AM 55.4 °F 48.2 °F 77% 30.12 in - NNW 4.6 mph - N/A   Clear
2:00 AM 55.4 °F 48.2 °F 77% 30.09 in - WNW 1.2 mph - N/A   Clear
3:00 AM 51.8 °F 48.2 °F 88% 30.09 in - WSW 4.6 mph - N/A   Clear
4:00 AM 51.8 °F 46.4 °F 82% 30.09 in - WSW 5.8 mph - N/A   Clear
5:00 AM 50.0 °F 46.4 °F 87% 30.09 in - SW 4.6 mph - N/A   Clear
6:00 AM 48.2 °F 44.6 °F 87% 30.12 in - West 3.5 mph - N/A   Clear
7:00 AM 48.2 °F 46.4 °F 93% 30.15 in - West 4.6 mph - N/A   Clear
8:00 AM 55.4 °F 48.2 °F 77% 30.15 in - Variable 2.3 mph - N/A   Clear
9:00 AM 68.0 °F 51.8 °F 56% 30.18 in - Variable 2.3 mph - N/A   Clear
10:00 AM 69.8 °F 39.2 °F 33% 30.18 in - ESE 5.8 mph - N/A   Clear
11:00 AM 73.4 °F 39.2 °F 29% 30.18 in - East 4.6 mph - N/A   Clear
12:00 PM 75.2 °F 37.4 °F 25% 30.15 in - NE 6.9 mph - N/A   Clear
1:00 PM 75.2 °F 39.2 °F 27% 30.12 in - NNE 5.8 mph - N/A   Clear
2:00 PM 77.0 °F 37.4 °F 24% 30.09 in - Variable 3.5 mph - N/A   Clear
3:00 PM 78.8 °F 37.4 °F 23% 30.09 in - Variable 4.6 mph - N/A   Clear
4:00 PM 78.8 °F 35.6 °F 21% 30.09 in - Variable 3.5 mph - N/A   Clear
5:00 PM 78.8 °F 35.6 °F 21% 30.09 in - East 3.5 mph - N/A   Clear
6:00 PM 73.4 °F 41.0 °F 31% 30.09 in - Variable 2.3 mph - N/A   Clear
7:00 PM 68.0 °F 41.0 °F 37% 30.12 in - NNW 3.5 mph - N/A   Clear
8:00 PM 64.4 °F 46.4 °F 52% 30.15 in - Variable 2.3 mph - N/A   Clear
9:00 PM 60.8 °F 51.8 °F 72% 30.18 in - Variable 1.2 mph - N/A   Clear
10:00 PM 60.8 °F 48.2 °F 63% 30.18 in - South 3.5 mph - N/A   Clear
11:00 PM 57.2 °F 48.2 °F 72% 30.18 in - WSW 3.5 mph - N/A   Clear